{"data":{"norad_id":51135,"epoch":"2026-09-20T04:42:07.341120Z","epoch_age_seconds":76180,"freshness":"FRESH","line1":"1 51135U 22005AH  26263.19591830  .00000325  00000+0  20214-4 0  9991","line2":"2 51135  53.1579 131.1253 0001042  94.0047 266.1075 15.35402687258298","mean_motion":15.35402687,"eccentricity":0.0001042,"inclination_deg":53.1579,"raan_deg":131.1253,"arg_perigee_deg":94.0047,"mean_anomaly_deg":266.1075,"bstar":2.0214e-5,"rev_number":25829,"period_min":93.786471275076,"perigee_km":459.01215990419,"apogee_km":460.4371702752,"semimajor_km":6837.8616650897,"source":"CELESTRAK","updated_at":"2026-09-20T09:00:39.589785Z"}}